JST165 YSSY-NZHN

Flight info

Callsign JST165
Flight time 2h 46m
Altitude 37000
Route EVONN DCT GEROS DCT LUNBI DCT LEKUS
Aircraft A320/M-SDE3FGHIRWY/LB1

Departure

Time 2026-04-30 02:09
Airport Sydney Kingsford Smith International Airport (YSSY)

Arrival

Time 2026-04-30 04:56
Airport Hamilton International Airport (NZHN)
Time Latitude Longitude Altitude Speed Heading
2026-04-30 01:27 -33.93939 151.16470 30 ft 0 kts 149°
2026-04-30 01:52 -33.93934 151.16467 30 ft 4 kts 148°
2026-04-30 01:52 -33.93912 151.16448 30 ft 4 kts 137°
2026-04-30 01:53 -33.93894 151.16424 30 ft 4 kts 124°
2026-04-30 01:53 -33.93880 151.16396 30 ft 4 kts 111°
2026-04-30 01:53 -33.93872 151.16365 30 ft 4 kts 104°
2026-04-30 01:53 -33.93864 151.16336 30 ft 4 kts 134°
2026-04-30 01:54 -33.93867 151.16334 30 ft 4 kts 164°
2026-04-30 01:54 -33.93893 151.16327 30 ft 4 kts 198°
2026-04-30 01:54 -33.93918 151.16316 30 ft 4 kts 200°
2026-04-30 01:54 -33.93944 151.16306 30 ft 4 kts 195°
2026-04-30 01:55 -33.93970 151.16300 30 ft 4 kts 192°
2026-04-30 01:55 -33.93996 151.16293 30 ft 4 kts 192°
2026-04-30 01:55 -33.94023 151.16286 30 ft 4 kts 192°
2026-04-30 01:55 -33.94049 151.16279 30 ft 4 kts 191°
2026-04-30 01:56 -33.94076 151.16276 30 ft 4 kts 181°
2026-04-30 01:56 -33.94103 151.16280 30 ft 4 kts 168°
2026-04-30 01:56 -33.94113 151.16284 30 ft 0 kts 164°
2026-04-30 01:58 -33.94121 151.16286 30 ft 5 kts 165°
2026-04-30 01:59 -33.94154 151.16448 30 ft 15 kts 73°
2026-04-30 01:59 -33.94125 151.16573 30 ft 17 kts 74°
2026-04-30 01:59 -33.94090 151.16718 30 ft 19 kts 74°
2026-04-30 02:00 -33.94052 151.16881 30 ft 21 kts 74°
2026-04-30 02:00 -33.94010 151.17062 30 ft 23 kts 73°
2026-04-30 02:00 -33.93964 151.17254 29 ft 25 kts 74°
2026-04-30 02:00 -33.93919 151.17445 27 ft 23 kts 73°
2026-04-30 02:01 -33.93880 151.17607 29 ft 18 kts 74°
2026-04-30 02:01 -33.93854 151.17741 30 ft 16 kts 98°
2026-04-30 02:01 -33.93952 151.17792 29 ft 17 kts 167°
2026-04-30 02:01 -33.94079 151.17825 29 ft 20 kts 168°
2026-04-30 02:02 -33.94217 151.17861 30 ft 21 kts 168°
2026-04-30 02:02 -33.94366 151.17899 30 ft 23 kts 168°
2026-04-30 02:02 -33.94494 151.17884 30 ft 17 kts 195°
2026-04-30 02:02 -33.94620 151.17906 30 ft 19 kts 168°
2026-04-30 02:03 -33.94710 151.17930 30 ft 20 kts 168°
2026-04-30 02:03 -33.94855 151.17968 30 ft 22 kts 167°
2026-04-30 02:03 -33.95011 151.18008 30 ft 22 kts 168°
2026-04-30 02:03 -33.95099 151.18109 30 ft 16 kts 81°
2026-04-30 02:04 -33.95075 151.18246 30 ft 18 kts 77°
2026-04-30 02:04 -33.95047 151.18401 30 ft 19 kts 77°
2026-04-30 02:04 -33.95098 151.18525 30 ft 19 kts 142°
2026-04-30 02:04 -33.95201 151.18637 30 ft 21 kts 137°
2026-04-30 02:05 -33.95334 151.18724 30 ft 23 kts 166°
2026-04-30 02:05 -33.95491 151.18764 30 ft 24 kts 167°
2026-04-30 02:05 -33.95600 151.18793 30 ft 25 kts 168°
2026-04-30 02:05 -33.95774 151.18837 30 ft 26 kts 168°
2026-04-30 02:06 -33.95958 151.18885 30 ft 28 kts 168°
2026-04-30 02:06 -33.96150 151.18935 30 ft 29 kts 168°
2026-04-30 02:06 -33.96337 151.18984 30 ft 26 kts 167°
2026-04-30 02:06 -33.96508 151.19028 30 ft 26 kts 168°
2026-04-30 02:07 -33.96675 151.19071 30 ft 22 kts 169°
2026-04-30 02:07 -33.96832 151.19067 30 ft 23 kts 171°
2026-04-30 02:07 -33.96990 151.19108 30 ft 19 kts 167°
2026-04-30 02:07 -33.97105 151.19146 30 ft 15 kts 146°
2026-04-30 02:08 -33.97115 151.19263 29 ft 15 kts 77°
2026-04-30 02:08 -33.97095 151.19368 28 ft 6 kts 77°
2026-04-30 02:08 -33.97064 151.19373 27 ft 2 kts 349°
2026-04-30 02:08 -33.97031 151.19365 25 ft 28 kts 348°
2026-04-30 02:09 -33.96526 151.19234 25 ft 116 kts 347°
2026-04-30 02:09 -33.95505 151.18971 55 ft 177 kts 348°
2026-04-30 02:09 -33.94272 151.18657 813 ft 182 kts 348°
2026-04-30 02:09 -33.93035 151.18329 1806 ft 180 kts 348°
2026-04-30 02:10 -33.91780 151.17995 2328 ft 193 kts 349°
2026-04-30 02:10 -33.90407 151.17638 2639 ft 213 kts 349°
2026-04-30 02:10 -33.88880 151.17428 2996 ft 235 kts
2026-04-30 02:10 -33.87333 151.18179 3523 ft 249 kts 39°
2026-04-30 02:11 -33.86281 151.19878 4344 ft 255 kts 67°
2026-04-30 02:11 -33.85710 151.21888 5219 ft 260 kts 72°
2026-04-30 02:11 -33.85185 151.23985 6076 ft 263 kts 73°
2026-04-30 02:11 -33.84797 151.26145 6906 ft 268 kts 88°
2026-04-30 02:12 -33.85130 151.28354 7654 ft 274 kts 113°
2026-04-30 02:12 -33.86045 151.30389 8450 ft 278 kts 118°
2026-04-30 02:12 -33.87000 151.32427 9246 ft 281 kts 118°
2026-04-30 02:12 -33.87963 151.34485 10052 ft 284 kts 118°
2026-04-30 02:13 -33.88937 151.36578 10715 ft 291 kts 118°
2026-04-30 02:13 -33.89964 151.38791 10937 ft 314 kts 118°
2026-04-30 02:13 -33.91066 151.41168 11079 ft 337 kts 118°
2026-04-30 02:13 -33.92241 151.43703 11303 ft 355 kts 118°
2026-04-30 02:14 -33.93457 151.46327 11835 ft 362 kts 118°
2026-04-30 02:14 -33.94694 151.48994 12424 ft 367 kts 118°
2026-04-30 02:14 -33.95944 151.51695 12991 ft 372 kts 118°
2026-04-30 02:14 -33.97211 151.54443 13587 ft 378 kts 118°
2026-04-30 02:15 -33.98493 151.57227 14181 ft 382 kts 118°
2026-04-30 02:15 -33.99790 151.60043 14705 ft 387 kts 118°
2026-04-30 02:15 -34.01105 151.62892 15265 ft 390 kts 118°
2026-04-30 02:15 -34.02423 151.65754 15840 ft 392 kts 118°
2026-04-30 02:16 -34.03747 151.68637 16420 ft 394 kts 118°
2026-04-30 02:16 -34.05076 151.71534 17013 ft 396 kts 119°
2026-04-30 02:16 -34.06416 151.74453 17621 ft 398 kts 119°
2026-04-30 02:16 -34.07761 151.77388 18221 ft 401 kts 119°
2026-04-30 02:17 -34.09115 151.80341 18817 ft 404 kts 119°
2026-04-30 02:17 -34.10479 151.83314 19349 ft 407 kts 119°
2026-04-30 02:17 -34.11837 151.86268 19889 ft 409 kts 119°
2026-04-30 02:17 -34.13221 151.89285 20412 ft 412 kts 120°
2026-04-30 02:18 -34.14607 151.92317 20931 ft 414 kts 120°
2026-04-30 02:18 -34.16002 151.95377 21433 ft 417 kts 119°
2026-04-30 02:18 -34.17404 151.98454 21904 ft 419 kts 119°
2026-04-30 02:18 -34.18809 152.01549 22365 ft 422 kts 119°
2026-04-30 02:19 -34.20018 152.04789 22801 ft 425 kts 110°
2026-04-30 02:19 -34.20999 152.08181 23242 ft 427 kts 110°
2026-04-30 02:19 -34.21983 152.11577 23652 ft 430 kts 110°
2026-04-30 02:19 -34.22977 152.14993 24063 ft 432 kts 110°
2026-04-30 02:20 -34.23977 152.18425 24410 ft 434 kts 110°
2026-04-30 02:20 -34.24982 152.21873 24749 ft 436 kts 110°
2026-04-30 02:20 -34.25991 152.25338 25082 ft 438 kts 110°
2026-04-30 02:20 -34.27005 152.28822 25400 ft 440 kts 110°
2026-04-30 02:21 -34.28023 152.32325 25724 ft 443 kts 110°
2026-04-30 02:21 -34.29046 152.35852 26042 ft 445 kts 110°
2026-04-30 02:21 -34.30064 152.39390 26368 ft 447 kts 110°
2026-04-30 02:21 -34.31089 152.42953 26691 ft 449 kts 110°
2026-04-30 02:22 -34.32114 152.46528 27001 ft 451 kts 110°
2026-04-30 02:22 -34.33146 152.50123 27311 ft 454 kts 110°
2026-04-30 02:22 -34.34183 152.53737 27641 ft 455 kts 110°
2026-04-30 02:22 -34.35217 152.57348 28076 ft 454 kts 110°
2026-04-30 02:23 -34.36252 152.60952 28524 ft 453 kts 110°
2026-04-30 02:23 -34.37288 152.64552 28965 ft 452 kts 110°
2026-04-30 02:23 -34.38318 152.68145 29410 ft 452 kts 110°
2026-04-30 02:23 -34.39344 152.71740 29856 ft 451 kts 110°
2026-04-30 02:24 -34.40368 152.75333 30309 ft 451 kts 110°
2026-04-30 02:24 -34.41388 152.78915 30725 ft 450 kts 110°
2026-04-30 02:24 -34.42403 152.82494 31122 ft 449 kts 110°
2026-04-30 02:24 -34.43414 152.86065 31525 ft 448 kts 110°
2026-04-30 02:25 -34.44422 152.89625 31941 ft 446 kts 110°
2026-04-30 02:25 -34.45427 152.93175 32370 ft 445 kts 110°
2026-04-30 02:25 -34.46431 152.96718 32779 ft 444 kts 110°
2026-04-30 02:25 -34.47431 153.00245 33200 ft 442 kts 110°
2026-04-30 02:26 -34.48424 153.03765 33626 ft 441 kts 110°
2026-04-30 02:26 -34.49414 153.07282 34036 ft 440 kts 110°
2026-04-30 02:26 -34.50402 153.10788 34456 ft 439 kts 110°
2026-04-30 02:26 -34.51386 153.14285 34775 ft 438 kts 110°
2026-04-30 02:27 -34.52371 153.17788 35046 ft 439 kts 110°
2026-04-30 02:27 -34.53358 153.21300 35278 ft 441 kts 110°
2026-04-30 02:27 -34.54332 153.24781 35424 ft 443 kts 110°
2026-04-30 02:28 -34.56354 153.31999 35464 ft 455 kts 110°
2026-04-30 02:28 -34.58383 153.39250 35465 ft 458 kts 110°
2026-04-30 02:29 -34.60416 153.46577 35468 ft 458 kts 110°
2026-04-30 02:29 -34.62450 153.53906 35466 ft 458 kts 110°
2026-04-30 02:30 -34.64485 153.61255 35468 ft 459 kts 110°
2026-04-30 02:30 -34.66509 153.68602 35473 ft 459 kts 110°
2026-04-30 02:31 -34.68533 153.75958 35475 ft 459 kts 110°
2026-04-30 02:31 -34.70551 153.83323 35481 ft 459 kts 110°
2026-04-30 02:32 -34.72565 153.90689 35480 ft 459 kts 110°
2026-04-30 02:32 -34.74586 153.98059 35478 ft 459 kts 110°
2026-04-30 02:33 -34.76591 154.05436 35477 ft 459 kts 110°
2026-04-30 02:33 -34.78591 154.12819 35475 ft 460 kts 110°
2026-04-30 02:34 -34.80604 154.20205 35477 ft 460 kts 110°
2026-04-30 02:34 -34.82593 154.27550 35475 ft 460 kts 110°
2026-04-30 02:35 -34.84581 154.34957 35482 ft 460 kts 110°
2026-04-30 02:35 -34.86565 154.42365 35477 ft 460 kts 110°
2026-04-30 02:36 -34.88553 154.49792 35471 ft 461 kts 110°
2026-04-30 02:36 -34.90539 154.57213 35483 ft 461 kts 110°
2026-04-30 02:37 -34.92523 154.64650 35478 ft 462 kts 110°
2026-04-30 02:37 -34.94503 154.72100 35487 ft 462 kts 110°
2026-04-30 02:38 -34.96475 154.79551 35480 ft 462 kts 110°
2026-04-30 02:38 -34.98445 154.87014 35483 ft 462 kts 110°
2026-04-30 02:39 -35.00413 154.94479 35484 ft 462 kts 110°
2026-04-30 02:39 -35.02322 155.01983 35508 ft 463 kts 108°
2026-04-30 02:39 -35.03181 155.05764 35834 ft 462 kts 107°
2026-04-30 02:40 -35.03987 155.09559 36139 ft 462 kts 106°
2026-04-30 02:40 -35.04765 155.13367 36391 ft 462 kts 106°
2026-04-30 02:40 -35.05538 155.17179 36622 ft 463 kts 106°
2026-04-30 02:40 -35.06319 155.20999 36846 ft 464 kts 106°
2026-04-30 02:41 -35.07102 155.24770 37081 ft 464 kts 106°
2026-04-30 02:41 -35.07915 155.28638 37284 ft 465 kts 107°
2026-04-30 02:41 -35.08714 155.32417 37444 ft 466 kts 107°
2026-04-30 02:42 -35.10341 155.40090 37474 ft 467 kts 107°
2026-04-30 02:42 -35.11952 155.47772 37472 ft 467 kts 107°
2026-04-30 02:43 -35.13552 155.55461 37470 ft 467 kts 107°
2026-04-30 02:43 -35.15150 155.63150 37472 ft 467 kts 106°
2026-04-30 02:44 -35.16745 155.70852 37479 ft 467 kts 106°
2026-04-30 02:44 -35.18342 155.78556 37489 ft 468 kts 106°
2026-04-30 02:45 -35.19930 155.86273 37488 ft 468 kts 106°
2026-04-30 02:45 -35.21507 155.93946 37495 ft 468 kts 106°
2026-04-30 02:46 -35.23096 156.01722 37497 ft 468 kts 106°
2026-04-30 02:46 -35.24669 156.09458 37502 ft 469 kts 106°
2026-04-30 02:47 -35.26241 156.17196 37499 ft 469 kts 106°
2026-04-30 02:47 -35.27806 156.24938 37503 ft 469 kts 106°
2026-04-30 02:48 -35.29361 156.32626 37505 ft 469 kts 106°
2026-04-30 02:48 -35.30923 156.40374 37509 ft 469 kts 106°
2026-04-30 02:49 -35.32473 156.48124 37507 ft 469 kts 106°
2026-04-30 02:49 -35.34022 156.55879 37503 ft 469 kts 106°
2026-04-30 02:50 -35.35565 156.63644 37505 ft 469 kts 106°
2026-04-30 02:50 -35.37097 156.71403 37508 ft 469 kts 106°
2026-04-30 02:51 -35.38360 156.77855 37507 ft 469 kts 106°
2026-04-30 02:51 -35.39883 156.85625 37506 ft 469 kts 106°
2026-04-30 02:52 -35.41411 156.93385 37505 ft 469 kts 106°
2026-04-30 02:52 -35.42930 157.01153 37501 ft 469 kts 106°
2026-04-30 02:53 -35.44444 157.08927 37504 ft 469 kts 106°
2026-04-30 02:53 -35.45947 157.16696 37512 ft 469 kts 106°
2026-04-30 02:54 -35.47448 157.24474 37508 ft 468 kts 106°
2026-04-30 02:54 -35.48954 157.32254 37508 ft 468 kts 106°
2026-04-30 02:55 -35.50450 157.40041 37514 ft 468 kts 105°
2026-04-30 02:55 -35.51930 157.47824 37511 ft 468 kts 105°
2026-04-30 02:56 -35.53394 157.55563 37510 ft 468 kts 105°
2026-04-30 02:56 -35.54872 157.63355 37515 ft 468 kts 105°
2026-04-30 02:57 -35.56348 157.71140 37517 ft 468 kts 105°
2026-04-30 02:57 -35.57811 157.78933 37518 ft 468 kts 105°
2026-04-30 02:58 -35.59264 157.86732 37517 ft 468 kts 105°
2026-04-30 02:58 -35.60717 157.94528 37516 ft 468 kts 105°
2026-04-30 02:59 -35.62181 158.02319 37515 ft 468 kts 105°
2026-04-30 02:59 -35.63628 158.10124 37515 ft 468 kts 105°
2026-04-30 03:00 -35.65065 158.17929 37517 ft 468 kts 105°
2026-04-30 03:00 -35.66507 158.25730 37514 ft 468 kts 105°
2026-04-30 03:01 -35.67942 158.33534 37517 ft 468 kts 105°
2026-04-30 03:01 -35.69359 158.41344 37516 ft 468 kts 105°
2026-04-30 03:02 -35.70772 158.49151 37517 ft 467 kts 105°
2026-04-30 03:02 -35.72190 158.56969 37516 ft 467 kts 105°
2026-04-30 03:03 -35.73599 158.64773 37513 ft 467 kts 105°
2026-04-30 03:03 -35.75705 158.76489 37518 ft 467 kts 105°
2026-04-30 03:04 -35.77102 158.84306 37514 ft 467 kts 105°
2026-04-30 03:04 -35.78486 158.92115 37518 ft 467 kts 105°
2026-04-30 03:05 -35.79870 158.99929 37523 ft 467 kts 104°
2026-04-30 03:05 -35.81246 159.07738 37520 ft 467 kts 104°
2026-04-30 03:06 -35.82616 159.15553 37518 ft 467 kts 104°
2026-04-30 03:06 -35.83986 159.23368 37516 ft 466 kts 104°
2026-04-30 03:07 -35.85339 159.31130 37518 ft 466 kts 104°
2026-04-30 03:07 -35.86693 159.38941 37523 ft 466 kts 104°
2026-04-30 03:08 -35.88048 159.46762 37529 ft 466 kts 104°
2026-04-30 03:08 -35.89394 159.54586 37522 ft 466 kts 104°
2026-04-30 03:09 -35.90737 159.62400 37519 ft 466 kts 104°
2026-04-30 03:09 -35.92074 159.70219 37526 ft 466 kts 104°
2026-04-30 03:10 -35.93405 159.78050 37523 ft 466 kts 104°
2026-04-30 03:10 -35.94728 159.85881 37529 ft 466 kts 104°
2026-04-30 03:11 -35.96049 159.93704 37521 ft 466 kts 104°
2026-04-30 03:11 -35.97366 160.01539 37530 ft 466 kts 103°
2026-04-30 03:12 -35.98673 160.09374 37534 ft 466 kts 103°
2026-04-30 03:12 -35.99978 160.17209 37528 ft 466 kts 103°
2026-04-30 03:13 -36.01284 160.25046 37536 ft 466 kts 103°
2026-04-30 03:13 -36.02570 160.32841 37525 ft 466 kts 103°
2026-04-30 03:14 -36.03856 160.40687 37539 ft 466 kts 103°
2026-04-30 03:14 -36.05139 160.48538 37521 ft 466 kts 103°
2026-04-30 03:15 -36.06415 160.56392 37522 ft 466 kts 103°
2026-04-30 03:15 -36.07695 160.64244 37523 ft 466 kts 103°
2026-04-30 03:16 -36.08968 160.72097 37529 ft 466 kts 103°
2026-04-30 03:16 -36.10226 160.79956 37527 ft 466 kts 103°
2026-04-30 03:17 -36.11481 160.87820 37523 ft 466 kts 103°
2026-04-30 03:17 -36.12740 160.95689 37527 ft 466 kts 103°
2026-04-30 03:18 -36.13994 161.03561 37526 ft 466 kts 102°
2026-04-30 03:18 -36.15238 161.11428 37525 ft 466 kts 102°
2026-04-30 03:19 -36.16483 161.19300 37525 ft 466 kts 102°
2026-04-30 03:19 -36.17720 161.27179 37525 ft 466 kts 102°
2026-04-30 03:20 -36.18942 161.35067 37526 ft 466 kts 102°
2026-04-30 03:20 -36.20151 161.42897 37527 ft 466 kts 102°
2026-04-30 03:21 -36.21374 161.50794 37526 ft 466 kts 102°
2026-04-30 03:21 -36.22592 161.58685 37525 ft 466 kts 102°
2026-04-30 03:22 -36.23802 161.66578 37524 ft 466 kts 102°
2026-04-30 03:22 -36.25001 161.74473 37524 ft 467 kts 102°
2026-04-30 03:23 -36.26200 161.82381 37525 ft 467 kts 102°
2026-04-30 03:23 -36.27401 161.90289 37530 ft 467 kts 102°
2026-04-30 03:24 -36.28596 161.98198 37526 ft 467 kts 101°
2026-04-30 03:24 -36.29774 162.06122 37532 ft 467 kts 101°
2026-04-30 03:25 -36.30953 162.14047 37531 ft 467 kts 101°
2026-04-30 03:25 -36.32130 162.21973 37530 ft 468 kts 101°
2026-04-30 03:26 -36.33298 162.29908 37536 ft 468 kts 101°
2026-04-30 03:26 -36.34468 162.37845 37534 ft 468 kts 101°
2026-04-30 03:27 -36.35628 162.45782 37534 ft 467 kts 101°
2026-04-30 03:27 -36.36776 162.53721 37533 ft 467 kts 101°
2026-04-30 03:28 -36.37921 162.61601 37535 ft 467 kts 101°
2026-04-30 03:28 -36.39067 162.69543 37530 ft 467 kts 101°
2026-04-30 03:29 -36.40205 162.77480 37530 ft 467 kts 101°
2026-04-30 03:29 -36.41331 162.85421 37529 ft 467 kts 100°
2026-04-30 03:30 -36.42453 162.93369 37531 ft 467 kts 101°
2026-04-30 03:30 -36.43581 163.01315 37529 ft 467 kts 100°
2026-04-30 03:31 -36.44702 163.09264 37533 ft 468 kts 100°
2026-04-30 03:31 -36.45816 163.17225 37533 ft 468 kts 100°
2026-04-30 03:32 -36.46921 163.25186 37531 ft 468 kts 100°
2026-04-30 03:32 -36.48019 163.33145 37532 ft 468 kts 100°
2026-04-30 03:33 -36.49117 163.41111 37532 ft 468 kts 100°
2026-04-30 03:33 -36.50210 163.49086 37533 ft 468 kts 100°
2026-04-30 03:34 -36.51297 163.57057 37537 ft 468 kts 100°
2026-04-30 03:34 -36.52371 163.65031 37534 ft 468 kts 100°
2026-04-30 03:35 -36.53448 163.73003 37535 ft 468 kts 100°
2026-04-30 03:35 -36.54521 163.80932 37531 ft 468 kts 100°
2026-04-30 03:36 -36.55591 163.88913 37532 ft 468 kts 99°
2026-04-30 03:36 -36.56646 163.96893 37531 ft 468 kts 99°
2026-04-30 03:37 -36.57516 164.03534 37529 ft 468 kts 99°
2026-04-30 03:37 -36.58737 164.12863 37531 ft 467 kts 99°
2026-04-30 03:38 -36.59608 164.19495 37531 ft 467 kts 99°
2026-04-30 03:38 -36.60646 164.27488 37529 ft 467 kts 99°
2026-04-30 03:39 -36.61679 164.35470 37532 ft 467 kts 99°
2026-04-30 03:39 -36.62709 164.43452 37531 ft 467 kts 99°
2026-04-30 03:40 -36.63729 164.51452 37527 ft 467 kts 99°
2026-04-30 03:40 -36.64745 164.59443 37529 ft 467 kts 99°
2026-04-30 03:41 -36.65754 164.67424 37528 ft 467 kts 99°
2026-04-30 03:41 -36.66761 164.75420 37529 ft 467 kts 99°
2026-04-30 03:42 -36.67765 164.83407 37530 ft 467 kts 99°
2026-04-30 03:42 -36.68762 164.91401 37526 ft 467 kts 99°
2026-04-30 03:43 -36.69740 164.99393 37525 ft 467 kts 99°
2026-04-30 03:43 -36.70708 165.07336 37524 ft 467 kts 99°
2026-04-30 03:44 -36.71696 165.15329 37526 ft 467 kts 99°
2026-04-30 03:44 -36.72679 165.23323 37527 ft 467 kts 99°
2026-04-30 03:45 -36.73650 165.31325 37531 ft 467 kts 99°
2026-04-30 03:45 -36.74611 165.39323 37531 ft 467 kts 99°
2026-04-30 03:46 -36.75566 165.47329 37531 ft 467 kts 99°
2026-04-30 03:46 -36.76508 165.55338 37531 ft 467 kts 99°
2026-04-30 03:47 -36.77451 165.63354 37533 ft 467 kts 99°
2026-04-30 03:47 -36.78390 165.71365 37532 ft 467 kts 98°
2026-04-30 03:48 -36.79326 165.79382 37527 ft 467 kts 99°
2026-04-30 03:48 -36.80267 165.87401 37530 ft 467 kts 99°
2026-04-30 03:49 -36.81196 165.95427 37532 ft 467 kts 98°
2026-04-30 03:49 -36.82118 166.03452 37532 ft 467 kts 98°
2026-04-30 03:50 -36.83041 166.11489 37533 ft 468 kts 98°
2026-04-30 03:50 -36.83943 166.19524 37536 ft 468 kts 98°
2026-04-30 03:51 -36.84843 166.27570 37537 ft 468 kts 98°
2026-04-30 03:51 -36.85735 166.35573 37541 ft 468 kts 98°
2026-04-30 03:52 -36.86630 166.43622 37538 ft 468 kts 98°
2026-04-30 03:52 -36.87523 166.51677 37536 ft 468 kts 98°
2026-04-30 03:53 -36.88412 166.59741 37538 ft 469 kts 98°
2026-04-30 03:53 -36.89292 166.67813 37538 ft 469 kts 98°
2026-04-30 03:54 -36.90169 166.75886 37539 ft 469 kts 98°
2026-04-30 03:54 -36.91037 166.83962 37540 ft 469 kts 98°
2026-04-30 03:55 -36.91899 166.92048 37539 ft 469 kts 98°
2026-04-30 03:55 -36.92747 167.00025 37543 ft 470 kts 98°
2026-04-30 03:56 -36.93606 167.08119 37544 ft 470 kts 98°
2026-04-30 03:56 -36.94456 167.16222 37545 ft 470 kts 98°
2026-04-30 03:57 -36.95294 167.24268 37546 ft 470 kts 98°
2026-04-30 03:57 -36.96129 167.32380 37546 ft 470 kts 98°
2026-04-30 03:58 -36.96966 167.40486 37540 ft 470 kts 98°
2026-04-30 03:58 -36.97798 167.48612 37539 ft 470 kts 98°
2026-04-30 03:59 -36.98614 167.56730 37545 ft 470 kts 98°
2026-04-30 03:59 -36.99420 167.64848 37543 ft 470 kts 98°
2026-04-30 04:00 -37.00232 167.72969 37539 ft 470 kts 98°
2026-04-30 04:00 -37.01043 167.81094 37541 ft 470 kts 98°
2026-04-30 04:01 -37.01836 167.89165 37539 ft 470 kts 98°
2026-04-30 04:01 -37.02631 167.97289 37541 ft 471 kts 98°
2026-04-30 04:02 -37.03426 168.05417 37538 ft 471 kts 98°
2026-04-30 04:02 -37.04209 168.13551 37537 ft 471 kts 98°
2026-04-30 04:03 -37.04986 168.21689 37534 ft 471 kts 98°
2026-04-30 04:03 -37.05760 168.29832 37537 ft 471 kts 98°
2026-04-30 04:04 -37.06533 168.37983 37523 ft 472 kts 98°
2026-04-30 04:04 -37.07292 168.46139 37526 ft 472 kts 98°
2026-04-30 04:05 -37.08049 168.54311 37535 ft 472 kts 98°
2026-04-30 04:05 -37.08811 168.62485 37537 ft 473 kts 98°
2026-04-30 04:06 -37.09560 168.70667 37539 ft 473 kts 97°
2026-04-30 04:06 -37.10299 168.78860 37540 ft 473 kts 97°
2026-04-30 04:07 -37.11032 168.87007 37543 ft 474 kts 97°
2026-04-30 04:08 -37.12136 168.99307 37544 ft 474 kts 97°
2026-04-30 04:08 -37.12862 169.07521 37546 ft 474 kts 97°
2026-04-30 04:09 -37.13574 169.15741 37545 ft 474 kts 97°
2026-04-30 04:09 -37.14288 169.23956 37547 ft 474 kts 97°
2026-04-30 04:10 -37.14996 169.32178 37545 ft 474 kts 97°
2026-04-30 04:10 -37.15698 169.40385 37549 ft 474 kts 97°
2026-04-30 04:11 -37.16401 169.48595 37543 ft 474 kts 97°
2026-04-30 04:11 -37.17091 169.56811 37544 ft 474 kts 97°
2026-04-30 04:12 -37.17774 169.65026 37542 ft 474 kts 97°
2026-04-30 04:12 -37.18456 169.73247 37546 ft 474 kts 97°
2026-04-30 04:13 -37.19125 169.81462 37542 ft 474 kts 97°
2026-04-30 04:13 -37.19797 169.89640 37545 ft 474 kts 97°
2026-04-30 04:14 -37.20467 169.97924 37545 ft 474 kts 97°
2026-04-30 04:14 -37.21116 170.06104 37548 ft 475 kts 97°
2026-04-30 04:15 -37.21762 170.14349 37547 ft 475 kts 97°
2026-04-30 04:15 -37.22412 170.22593 37551 ft 475 kts 97°
2026-04-30 04:16 -37.23048 170.30835 37544 ft 475 kts 97°
2026-04-30 04:16 -37.23685 170.39089 37547 ft 475 kts 97°
2026-04-30 04:17 -37.24323 170.47335 37541 ft 475 kts 97°
2026-04-30 04:17 -37.24946 170.55588 37546 ft 475 kts 97°
2026-04-30 04:18 -37.25560 170.63847 37540 ft 475 kts 97°
2026-04-30 04:18 -37.26926 170.71928 37542 ft 473 kts 106°
2026-04-30 04:19 -37.28519 170.79954 37542 ft 474 kts 105°
2026-04-30 04:19 -37.30095 170.87994 37540 ft 474 kts 105°
2026-04-30 04:20 -37.31661 170.96040 37542 ft 474 kts 105°
2026-04-30 04:20 -37.33219 171.04094 37539 ft 475 kts 105°
2026-04-30 04:21 -37.34783 171.12153 37539 ft 475 kts 105°
2026-04-30 04:21 -37.36339 171.20166 37537 ft 475 kts 105°
2026-04-30 04:22 -37.37902 171.28292 37535 ft 475 kts 105°
2026-04-30 04:22 -37.39431 171.36318 37539 ft 476 kts 105°
2026-04-30 04:23 -37.40972 171.44407 37538 ft 476 kts 105°
2026-04-30 04:23 -37.42504 171.52502 37541 ft 476 kts 105°
2026-04-30 04:24 -37.44038 171.60597 37541 ft 476 kts 105°
2026-04-30 04:24 -37.45569 171.68710 37542 ft 476 kts 105°
2026-04-30 04:25 -37.47090 171.76825 37541 ft 477 kts 105°
2026-04-30 04:25 -37.48608 171.84954 37545 ft 477 kts 105°
2026-04-30 04:26 -37.50127 171.93086 37543 ft 477 kts 105°
2026-04-30 04:26 -37.51634 172.01211 37541 ft 477 kts 104°
2026-04-30 04:27 -37.52882 172.07969 37531 ft 476 kts 104°
2026-04-30 04:27 -37.54381 172.16102 37536 ft 476 kts 104°
2026-04-30 04:28 -37.55868 172.24239 37535 ft 477 kts 104°
2026-04-30 04:28 -37.57353 172.32391 37534 ft 477 kts 104°
2026-04-30 04:29 -37.58832 172.40559 37537 ft 478 kts 104°
2026-04-30 04:29 -37.60307 172.48730 37534 ft 478 kts 104°
2026-04-30 04:30 -37.61776 172.56860 37533 ft 478 kts 104°
2026-04-30 04:30 -37.63247 172.65047 37533 ft 479 kts 104°
2026-04-30 04:31 -37.64716 172.73252 37536 ft 479 kts 104°
2026-04-30 04:31 -37.66177 172.81473 37532 ft 480 kts 104°
2026-04-30 04:32 -37.67629 172.89695 37529 ft 480 kts 104°
2026-04-30 04:32 -37.69075 172.97924 37537 ft 480 kts 104°
2026-04-30 04:33 -37.70514 173.06110 37537 ft 480 kts 104°
2026-04-30 04:33 -37.71956 173.14351 37538 ft 480 kts 103°
2026-04-30 04:34 -37.73389 173.22589 37538 ft 480 kts 103°
2026-04-30 04:34 -37.74818 173.30832 37538 ft 481 kts 103°
2026-04-30 04:35 -37.76247 173.39079 37537 ft 481 kts 103°
2026-04-30 04:35 -37.77666 173.47345 37537 ft 481 kts 103°
2026-04-30 04:35 -37.78369 173.51480 37432 ft 481 kts 103°
2026-04-30 04:36 -37.79074 173.55609 37167 ft 480 kts 103°
2026-04-30 04:36 -37.79778 173.59738 36906 ft 480 kts 103°
2026-04-30 04:36 -37.80481 173.63867 36663 ft 480 kts 103°
2026-04-30 04:36 -37.81174 173.67947 36429 ft 481 kts 103°
2026-04-30 04:37 -37.81875 173.72085 35859 ft 483 kts 103°
2026-04-30 04:37 -37.82584 173.76271 34954 ft 488 kts 103°
2026-04-30 04:37 -37.83297 173.80482 33951 ft 492 kts 103°
2026-04-30 04:37 -37.84015 173.84728 32937 ft 495 kts 103°
2026-04-30 04:38 -37.84730 173.88991 31891 ft 497 kts 103°
2026-04-30 04:38 -37.85446 173.93276 30874 ft 498 kts 103°
2026-04-30 04:38 -37.86163 173.97579 29556 ft 502 kts 103°
2026-04-30 04:38 -37.86875 174.01883 28654 ft 494 kts 103°
2026-04-30 04:39 -37.87566 174.06059 28068 ft 477 kts 103°
2026-04-30 04:39 -37.88238 174.10120 27340 ft 466 kts 103°
2026-04-30 04:39 -37.88891 174.14094 26661 ft 458 kts 103°
2026-04-30 04:39 -37.89405 174.18055 25988 ft 455 kts 96°
2026-04-30 04:40 -37.89451 174.22047 25331 ft 453 kts 88°
2026-04-30 04:40 -37.89301 174.26020 24665 ft 450 kts 88°
2026-04-30 04:40 -37.89154 174.29971 23989 ft 448 kts 88°
2026-04-30 04:40 -37.89009 174.33894 23281 ft 444 kts 88°
2026-04-30 04:41 -37.88870 174.37763 22660 ft 438 kts 88°
2026-04-30 04:41 -37.88730 174.41593 22047 ft 433 kts 88°
2026-04-30 04:41 -37.88591 174.45386 21452 ft 429 kts 88°
2026-04-30 04:41 -37.88449 174.49146 20880 ft 426 kts 88°
2026-04-30 04:42 -37.88305 174.52879 20321 ft 423 kts 88°
2026-04-30 04:42 -37.88161 174.56588 19762 ft 421 kts 88°
2026-04-30 04:42 -37.88019 174.60282 19212 ft 420 kts 88°
2026-04-30 04:42 -37.87879 174.63922 18611 ft 419 kts 88°
2026-04-30 04:43 -37.87736 174.67594 18002 ft 416 kts 88°
2026-04-30 04:43 -37.87592 174.71250 17403 ft 414 kts 88°
2026-04-30 04:43 -37.87445 174.74871 16787 ft 411 kts 88°
2026-04-30 04:43 -37.87295 174.78473 16170 ft 409 kts 88°
2026-04-30 04:44 -37.87144 174.82059 15540 ft 407 kts 88°
2026-04-30 04:44 -37.86975 174.85626 14893 ft 403 kts 87°
2026-04-30 04:44 -37.86791 174.89124 13859 ft 394 kts 87°
2026-04-30 04:44 -37.86602 174.92520 13080 ft 378 kts 87°
2026-04-30 04:45 -37.86419 174.95757 12489 ft 360 kts 87°
2026-04-30 04:45 -37.86241 174.98888 11909 ft 355 kts 87°
2026-04-30 04:45 -37.86067 175.02009 11328 ft 355 kts 87°
2026-04-30 04:45 -37.85895 175.05128 10756 ft 355 kts 87°
2026-04-30 04:46 -37.85729 175.08109 10584 ft 331 kts 87°
2026-04-30 04:46 -37.85573 175.10896 10423 ft 307 kts 87°
2026-04-30 04:46 -37.85425 175.13551 9966 ft 297 kts 87°
2026-04-30 04:46 -37.85282 175.16134 9833 ft 294 kts 87°
2026-04-30 04:47 -37.85139 175.18712 9704 ft 293 kts 87°
2026-04-30 04:47 -37.84927 175.21274 9572 ft 293 kts 77°
2026-04-30 04:47 -37.84131 175.23634 9437 ft 294 kts 56°
2026-04-30 04:47 -37.82717 175.25510 8987 ft 297 kts 34°
2026-04-30 04:48 -37.80861 175.26599 8500 ft 296 kts 15°
2026-04-30 04:48 -37.78894 175.27289 8205 ft 290 kts 15°
2026-04-30 04:48 -37.76961 175.27979 7602 ft 288 kts 15°
2026-04-30 04:48 -37.75056 175.28664 7165 ft 279 kts 15°
2026-04-30 04:49 -37.73226 175.29325 6842 ft 268 kts 15°
2026-04-30 04:49 -37.71471 175.29961 6497 ft 257 kts 15°
2026-04-30 04:49 -37.69785 175.30574 6162 ft 247 kts 15°
2026-04-30 04:49 -37.68156 175.31166 5831 ft 239 kts 16°
2026-04-30 04:50 -37.66594 175.31740 5503 ft 231 kts 18°
2026-04-30 04:50 -37.65253 175.32766 5188 ft 228 kts 50°
2026-04-30 04:50 -37.64569 175.34491 5056 ft 224 kts 81°
2026-04-30 04:50 -37.64674 175.36432 4804 ft 223 kts 107°
2026-04-30 04:51 -37.65130 175.38312 4466 ft 225 kts 112°
2026-04-30 04:51 -37.66097 175.39811 4118 ft 223 kts 153°
2026-04-30 04:51 -37.67584 175.40122 3814 ft 219 kts 193°
2026-04-30 04:51 -37.69041 175.39570 3526 ft 219 kts 198°
2026-04-30 04:52 -37.70502 175.39027 3225 ft 219 kts 197°
2026-04-30 04:52 -37.71967 175.38506 2924 ft 219 kts 197°
2026-04-30 04:52 -37.73404 175.37995 2616 ft 209 kts 197°
2026-04-30 04:52 -37.74765 175.37511 2345 ft 197 kts 197°
2026-04-30 04:53 -37.76053 175.37053 2115 ft 186 kts 197°
2026-04-30 04:53 -37.77265 175.36621 1841 ft 177 kts 197°
2026-04-30 04:53 -37.78408 175.36214 1588 ft 164 kts 198°
2026-04-30 04:53 -37.79457 175.35839 1399 ft 150 kts 197°
2026-04-30 04:54 -37.80420 175.35494 1226 ft 140 kts 198°
2026-04-30 04:54 -37.81341 175.35163 1026 ft 136 kts 197°
2026-04-30 04:54 -37.82254 175.34835 837 ft 136 kts 195°
2026-04-30 04:54 -37.83156 175.34501 678 ft 135 kts 195°
2026-04-30 04:55 -37.84060 175.34160 502 ft 135 kts 192°
2026-04-30 04:55 -37.84964 175.33837 340 ft 135 kts 193°
2026-04-30 04:55 -37.85865 175.33509 189 ft 132 kts 193°
2026-04-30 04:55 -37.86574 175.33259 176 ft 66 kts 195°
2026-04-30 04:56 -37.86855 175.33157 175 ft 37 kts 195°
2026-04-30 04:56 -37.87095 175.33069 175 ft 34 kts 195°
2026-04-30 04:56 -37.87293 175.32997 174 ft 21 kts 197°
2026-04-30 04:56 -37.87408 175.32956 174 ft 12 kts 188°
2026-04-30 04:57 -37.87470 175.32950 173 ft 11 kts 274°
2026-04-30 04:57 -37.87400 175.32957 174 ft 13 kts 20°
2026-04-30 04:57 -37.87297 175.32996 174 ft 18 kts 16°
2026-04-30 04:57 -37.87135 175.33056 174 ft 30 kts 15°
2026-04-30 04:58 -37.86918 175.33133 175 ft 33 kts 16°
2026-04-30 04:58 -37.86692 175.33216 175 ft 34 kts 16°
2026-04-30 04:58 -37.86556 175.33264 176 ft 13 kts 15°
2026-04-30 04:58 -37.86538 175.33337 177 ft 12 kts 104°
2026-04-30 04:59 -37.86556 175.33420 176 ft 8 kts 106°
2026-04-30 04:59 -37.86562 175.33459 174 ft 0 kts 92°
2026-04-30 04:59 -37.86562 175.33460 174 ft 1 kts 91°
2026-04-30 04:59 -37.86561 175.33464 174 ft 0 kts 87°
2026-04-30 05:00 -37.86556 175.33479 176 ft 4 kts 63°
2026-04-30 05:00 -37.86530 175.33517 176 ft 6 kts 63°
2026-04-30 05:00 -37.86540 175.33559 176 ft 5 kts 133°
2026-04-30 05:01 -37.86551 175.33571 176 ft 2 kts 141°
2026-04-30 05:01 -37.86553 175.33572 176 ft 0 kts 143°